Location: DARK SKY Beskydy - Park tmavé oblohy, www.darkskybeskydy.cz
(49.4926°N, 18.5016°E)
Time: 16:58:34
(UTC+02:00)

Courier 1B Rocket - All Passes

Search period start: 13 July 2025 00:00
Search period end: 23 July 2025 00:00
Orbit: 920 x 1201 km, 28.2° (Epoch: 12 July)

Date Brightness Start Highest point End Pass type
(mag) Time Alt. Az. Time Alt. Az. Time Alt. Az.
13 Jul - 14:49:37 10° S 14:51:39 11° S 14:53:43 10° SSE daylight
13 Jul - 16:41:38 10° SSW 16:43:41 11° S 16:45:44 10° S daylight
14 Jul - 15:40:32 10° SSW 15:42:50 12° S 15:45:09 10° SSE daylight
15 Jul - 14:39:59 10° SSW 14:42:01 11° S 14:44:04 10° SSE daylight
16 Jul - 13:40:11 10° S 13:41:14 10° S 13:42:17 10° SSE daylight
16 Jul - 15:32:24 10° SSW 15:33:12 10° S 15:33:59 10° S daylight
17 Jul - 14:31:01 10° SSW 14:32:24 11° S 14:33:47 10° S daylight
18 Jul - 13:30:32 10° S 13:31:37 10° S 13:32:43 10° SSE daylight
